EW5123 Weather Reports


Display with metric or nautical units.
time (UTC)temp
F
wind
direction
speed
MPH
gust
MPH
rain 1hr
in
rain 24hr
in
rain mn
in
humidity
%
barometer
mb
20260503231704 69 326 3.0 8.0 0.00 0.00 0.00 16 977.2
20260503231700 68 332 3.0 8.0 0.00 0.00 0.00 17 977.2
20260503230659 69 353 2.0 8.0 0.00 0.00 0.00 17 977.2
20260503230159 70 353 1.0 6.0 0.00 0.00 0.00 16 977.0
20260503225700 71 131 1.0 6.0 0.00 0.00 0.00 16 977.0
20260503225159 70 304 1.0 6.0 0.00 0.00 0.00 16 977.0
20260503224659 69 30 1.0 5.0 0.00 0.00 0.00 16 977.0
20260503224159 68 335 3.0 9.0 0.00 0.00 0.00 17 977.2
20260503223659 68 3 2.0 9.0 0.00 0.00 0.00 17 977.2
20260503223158 68 323 1.0 9.0 0.00 0.00 0.00 18 977.3
20260503222658 67 259 3.0 9.0 0.00 0.00 0.00 18 977.3
20260503222158 67 323 3.0 7.0 0.00 0.00 0.00 17 977.3
20260503221658 67 7 3.0 8.0 0.00 0.00 0.00 17 977.4
20260503221157 67 24 3.0 8.0 0.00 0.00 0.00 17 977.5
20260503220158 68 357 2.0 8.0 0.00 0.00 0.00 18 977.6
20260503215657 68 348 3.0 8.0 0.00 0.00 0.00 16 977.8
20260503215158 68 348 3.0 8.0 0.00 0.00 0.00 17 977.8
20260503214702 70 340 2.0 8.0 0.00 0.00 0.00 16 977.9
20260503214657 69 292 3.0 8.0 0.00 0.00 0.00 16 977.9
20260503213657 73 335 0.0 4.0 0.00 0.00 0.00 15 977.9
20260503213157 73 136 0.0 5.0 0.00 0.00 0.00 15 977.9
20260503212657 72 313 1.0 5.0 0.00 0.00 0.00 15 978.0
20260503212201 69 315 2.0 6.0 0.00 0.00 0.00 16 978.3
20260503212157 71 110 1.0 4.0 0.00 0.00 0.00 17 978.2
20260503211158 69 356 1.0 6.0 0.00 0.00 0.00 16 978.5
20260503210657 69 291 0.0 6.0 0.00 0.00 0.00 18 978.6
20260503210201 69 337 2.0 7.0 0.00 0.00 0.00 18 978.7
20260503210157 69 285 1.0 6.0 0.00 0.00 0.00 16 978.7
20260503205202 71 342 1.0 7.0 0.00 0.00 0.00 16 978.8
20260503205158 69 1 2.0 7.0 0.00 0.00 0.00 17 978.7
20260503204803 73 133 0.0 6.0 0.00 0.00 0.00 16 978.9
20260503204157 72 162 1.0 6.0 0.00 0.00 0.00 14 979.1
20260503203155 72 133 0.0 5.0 0.00 0.00 0.00 15 979.1
20260503202655 72 227 0.0 5.0 0.00 0.00 0.00 14 979.2
20260503202158 71 353 0.0 3.0 0.00 0.00 0.00 16 979.3
20260503202154 72 169 0.0 2.0 0.00 0.00 0.00 17 979.2
20260503201158 68 347 3.0 11.0 0.00 0.00 0.00 16 979.4
20260503201153 69 271 2.0 8.0 0.00 0.00 0.00 17 979.4
20260503200759 68 324 1.0 11.0 0.00 0.00 0.00 16 979.4
20260503200259 69 287 0.0 2.0 0.00 0.00 0.00 15 979.4
20260503195151 71 313 0.0 3.0 0.00 0.00 0.00 16 979.5
20260503194651 71 326 2.0 9.0 0.00 0.00 0.00 15 979.5
20260503194152 70 110 2.0 9.0 0.00 0.00 0.00 16 979.6
20260503193650 71 26 1.0 5.0 0.00 0.00 0.00 16 979.6
20260503193149 70 357 2.0 7.0 0.00 0.00 0.00 16 979.6
20260503192649 68 25 2.0 7.0 0.00 0.00 0.00 17 979.9
20260503192149 67 12 2.0 8.0 0.00 0.00 0.00 16 980.0
20260503191649 67 327 2.0 8.0 0.00 0.00 0.00 16 980.1
20260503191149 67 345 3.0 11.0 0.00 0.00 0.00 17 980.2
20260503190649 67 15 3.0 11.0 0.00 0.00 0.00 16 980.2
20260503190148 68 297 2.0 7.0 0.00 0.00 0.00 18 980.4
20260503185649 68 313 3.0 12.0 0.00 0.00 0.00 19 980.5
20260503185148 67 298 3.0 12.0 0.00 0.00 0.00 16 980.5
20260503184647 67 139 3.0 8.0 0.00 0.00 0.00 18 980.5
20260503184147 67 307 2.0 8.0 0.00 0.00 0.00 18 980.7
20260503183647 67 282 3.0 8.0 0.00 0.00 0.00 17 980.8
20260503182645 66 358 3.0 9.0 0.00 0.00 0.00 20 980.9
20260503182145 65 316 3.0 10.0 0.00 0.00 0.00 19 980.9
20260503181645 66 321 2.0 10.0 0.00 0.00 0.00 19 981.2
20260503181145 65 304 2.0 10.0 0.00 0.00 0.00 19 981.3
20260503180645 65 214 3.0 11.0 0.00 0.00 0.00 20 981.2
20260503180145 65 306 3.0 11.0 0.00 0.00 0.00 20 981.4
20260503175645 66 198 2.0 9.0 0.00 0.00 0.00 19 981.5
20260503175145 66 352 3.0 11.0 0.00 0.00 0.00 20 981.5
20260503174645 65 333 3.0 11.0 0.00 0.00 0.00 21 981.7
20260503174145 65 341 4.0 11.0 0.00 0.00 0.00 20 981.7
20260503173643 65 163 4.0 11.0 0.00 0.00 0.00 21 981.8
20260503173147 64 355 3.0 10.0 0.00 0.00 0.00 23 982.0
20260503173143 64 155 4.0 11.0 0.00 0.00 0.00 21 981.7
20260503172143 64 228 3.0 9.0 0.00 0.00 0.00 21 982.0
20260503171643 64 201 2.0 8.0 0.00 0.00 0.00 23 982.1
20260503171143 64 316 2.0 8.0 0.00 0.00 0.00 21 982.1
20260503170643 64 212 2.0 8.0 0.00 0.00 0.00 21 982.1
20260503170144 64 271 2.0 7.0 0.00 0.00 0.00 21 982.4
20260503160139 62 286 3.0 10.0 0.00 0.00 0.00 23 982.6
20260503150133 58 228 3.0 10.0 0.00 0.00 0.00 30 982.7
20260503140134 55 204 3.0 6.0 0.00 0.00 0.00 31 983.0
20260503131134 53 200 2.0 6.0 0.00 0.00 0.00 34 983.0
20260503130634 53 201 2.0 6.0 0.00 0.00 0.00 34 982.8
20260503130134 53 161 2.0 6.0 0.00 0.00 0.00 33 982.8
20260503120130 49 201 0.0 2.0 0.00 0.00 0.00 36 982.2
20260503110628 48 201 2.0 5.0 0.00 0.00 0.00 36 982.1
20260503110129 48 242 1.0 5.0 0.00 0.00 0.00 37 982.1
20260503090121 49 214 1.0 3.0 0.00 0.00 0.00 34 982.5
20260503081620 50 183 0.0 2.0 0.00 0.00 0.00 32 982.5
20260503081120 50 214 0.0 2.0 0.00 0.00 0.00 31 982.5
20260503080621 51 197 0.0 2.0 0.00 0.00 0.00 31 982.6
20260503080118 51 219 1.0 3.0 0.00 0.00 0.00 31 982.6
20260503072615 53 179 4.0 7.0 0.00 0.00 0.00 28 982.7
20260503072115 53 202 4.0 7.0 0.00 0.00 0.00 28 982.7
20260503071616 52 191 4.0 8.0 0.00 0.00 0.00 29 982.7
20260503071116 51 193 4.0 8.0 0.00 0.00 0.00 30 982.7
20260503070616 51 167 4.0 9.0 0.00 0.00 0.00 30 982.7
20260503070116 51 213 5.0 9.0 0.00 0.00 0.00 29 982.8
20260503060114 51 172 5.0 11.0 0.00 0.00 0.00 30 983.0
20260503055113 52 194 6.0 12.0 0.00 0.00 0.00 30 983.0
20260503054612 52 196 6.0 12.0 0.00 0.00 0.00 30 983.0
20260503054114 52 198 6.0 12.0 0.00 0.00 0.00 31 983.1
20260503054110 52 193 6.0 12.0 0.00 0.00 0.00 31 983.0
20260503053110 52 204 6.0 12.0 0.00 0.00 0.00 30 983.0
20260503052611 52 173 6.0 13.0 0.00 0.00 0.00 31 983.0
20260503052110 52 172 6.0 13.0 0.00 0.00 0.00 31 983.0
20260503051611 52 191 6.0 13.0 0.00 0.00 0.00 31 983.0
20260503051111 52 187 6.0 14.0 0.00 0.00 0.00 30 983.0
20260503050610 53 197 7.0 14.0 0.00 0.00 0.00 30 982.8
20260503050111 52 189 7.0 15.0 0.00 0.00 0.00 30 982.8
20260503045610 52 174 8.0 18.0 0.00 0.00 0.00 30 982.8
20260503045110 53 216 8.0 18.0 0.00 0.00 0.00 29 982.8
20260503044611 53 205 8.0 14.0 0.00 0.00 0.00 29 982.8
20260503044115 53 191 7.0 13.0 0.00 0.00 0.00 29 982.8
20260503044110 53 162 8.0 13.0 0.00 0.00 0.00 29 982.8
20260503043110 53 190 7.0 13.0 0.00 0.00 0.00 29 982.8
20260503042610 53 172 7.0 13.0 0.00 0.00 0.00 29 983.0
20260503042110 53 195 6.0 13.0 0.00 0.00 0.00 28 983.0
20260503041611 53 175 6.0 13.0 0.00 0.00 0.00 28 983.1
20260503041109 53 207 6.0 13.0 0.00 0.00 0.00 28 983.1
20260503040608 53 175 7.0 14.0 0.00 0.00 0.00 28 983.1
20260503040108 53 212 7.0 14.0 0.00 0.00 0.00 27 983.1
20260503035613 53 194 7.0 14.0 0.00 0.00 0.00 28 983.0
20260503035609 53 196 7.0 13.0 0.00 0.00 0.00 27 983.0
20260503034613 52 191 4.0 8.0 0.00 0.00 0.00 31 983.0
20260503034608 53 199 6.0 14.0 0.00 0.00 0.00 29 983.0
20260503034108 52 182 5.0 13.0 0.00 0.00 0.00 29 983.0
20260503033214 51 165 1.0 5.0 0.00 0.00 0.00 33 982.8
20260503033112 51 165 2.0 6.0 0.00 0.00 0.00 32 982.8
20260503033108 51 201 3.0 7.0 0.00 0.00 0.00 31 982.8
20260503031608 51 153 0.0 4.0 0.00 0.00 0.00 33 982.8
20260503031106 51 150 1.0 6.0 0.00 0.00 0.00 33 982.8
20260503030606 51 163 2.0 6.0 0.00 0.00 0.00 34 982.8
20260503030106 51 208 2.0 6.0 0.00 0.00 0.00 34 982.7
20260503025606 51 143 3.0 6.0 0.00 0.00 0.00 35 982.7
20260503025106 51 170 3.0 6.0 0.00 0.00 0.00 35 982.7
20260503024604 52 215 2.0 6.0 0.00 0.00 0.00 34 982.6
20260503024108 52 159 1.0 3.0 0.00 0.00 0.00 35 982.5
20260503024104 52 187 1.0 6.0 0.00 0.00 0.00 34 982.5
20260503023106 53 133 1.0 4.0 0.00 0.00 0.00 35 982.5
20260503022604 53 148 1.0 4.0 0.00 0.00 0.00 33 982.5
20260503022104 54 177 0.0 3.0 0.00 0.00 0.00 32 982.5
20260503021602 55 136 0.0 3.0 0.00 0.00 0.00 32 982.4
20260503021059 55 169 1.0 6.0 0.00 0.00 0.00 31 982.4
20260503020602 56 159 4.0 8.0 0.00 0.00 0.00 29 982.4
20260503020558 56 136 3.0 8.0 0.00 0.00 0.00 30 982.4
20260503015557 57 195 4.0 7.0 0.00 0.00 0.00 29 982.2
20260503015058 57 120 4.0 9.0 0.00 0.00 0.00 29 982.1
20260503014556 58 134 4.0 9.0 0.00 0.00 0.00 27 982.1
20260503014056 58 148 4.0 8.0 0.00 0.00 0.00 27 982.1
20260503013556 59 141 5.0 10.0 0.00 0.00 0.00 27 982.1
20260503013057 60 207 5.0 12.0 0.00 0.00 0.00 26 982.1
20260503012555 60 158 5.0 12.0 0.00 0.00 0.00 25 982.1
20260503012056 60 158 4.0 10.0 0.00 0.00 0.00 25 982.0
20260503011555 61 203 5.0 10.0 0.00 0.00 0.00 25 982.1
20260503011054 61 158 5.0 10.0 0.00 0.00 0.00 24 982.0
20260503010554 62 237 6.0 12.0 0.00 0.00 0.00 24 982.0
20260503010058 63 153 5.0 11.0 0.00 0.00 0.00 22 982.0
20260503010053 62 209 5.0 12.0 0.00 0.00 0.00 23 982.0
20260503005054 64 191 4.0 9.0 0.00 0.00 0.00 23 982.0
20260503004554 65 173 5.0 15.0 0.00 0.00 0.00 22 982.0
20260503004054 65 117 5.0 15.0 0.00 0.00 0.00 22 982.0
20260503003553 66 163 5.0 12.0 0.00 0.00 0.00 22 982.0
20260503003058 67 184 2.0 9.0 0.00 0.00 0.00 22 982.1
20260503003054 66 193 5.0 12.0 0.00 0.00 0.00 22 982.0
20260503002051 67 144 2.0 10.0 0.00 0.00 0.00 22 982.1
20260503001551 66 136 4.0 12.0 0.00 0.00 0.00 22 982.1
20260503001051 67 186 4.0 12.0 0.00 0.00 0.00 22 982.1
20260503000551 67 166 4.0 10.0 0.00 0.00 0.00 22 982.1
20260503000056 67 163 3.0 11.0 0.00 0.00 0.00 21 982.2
20260503000051 67 159 4.0 11.0 0.00 0.00 0.00 22 982.2
20260502235051 68 193 4.0 9.0 0.00 0.00 0.00 21 982.2
20260502234552 68 172 4.0 9.0 0.00 0.00 0.00 20 982.2
20260502234051 68 174 2.0 9.0 0.00 0.00 0.00 21 982.2
20260502233555 68 125 2.0 9.0 0.00 0.00 0.00 19 981.9
20260502233550 68 213 3.0 11.0 0.00 0.00 0.00 20 982.2
20260502233050 68 155 4.0 11.0 0.00 0.00 0.00 20 982.2